owner,sensor,date,latitude,longitude,vertical_datum,wind_speed,wind_to_direction,wind_speed_of_gust,qcFlag 
DISL,ioos:station:DISL:BSCA:1,2013-08-01T00:00:00Z,30.3288,-87.8293,0.0,0.8,173.0,99.0,'11111222,11111222,11144222' 
DISL,ioos:station:DISL:BSCA:1,2013-08-01T00:30:00Z,30.3288,-87.8293,0.0,0.9,204.0,99.0,'11111222,11111222,11144222' 
DISL,ioos:station:DISL:BSCA:1,2013-08-01T01:00:00Z,30.3288,-87.8293,0.0,3.6,214.0,99.0,'11111222,11111222,11144222' 
DISL,ioos:station:DISL:BSCA:1,2013-08-01T01:30:00Z,30.3288,-87.8293,0.0,4.1,219.0,99.0,'11111222,11111222,11144222' 
DISL,ioos:station:DISL:BSCA:1,2013-08-01T02:00:00Z,30.3288,-87.8293,0.0,3.9,210.0,99.0,'11111222,11111222,11144222' 
DISL,ioos:station:DISL:BSCA:1,2013-08-01T02:30:00Z,30.3288,-87.8293,0.0,4.1,214.0,99.0,'11111222,11111222,11144222' 
DISL,ioos:station:DISL:BSCA:1,2013-08-01T03:00:00Z,30.3288,-87.8293,0.0,4.2,212.0,99.0,'11111222,11111222,11144222' 
DISL,ioos:station:DISL:BSCA:1,2013-08-01T03:30:00Z,30.3288,-87.8293,0.0,3.9,205.0,99.0,'11111222,11111222,11144222' 
DISL,ioos:station:DISL:BSCA:1,2013-08-01T04:00:00Z,30.3288,-87.8293,0.0,5.1,212.0,99.0,'11111222,11111222,11144222' 
DISL,ioos:station:DISL:BSCA:1,2013-08-01T04:30:00Z,30.3288,-87.8293,0.0,5.4,216.0,99.0,'11111222,11111222,11144222' 
DISL,ioos:station:DISL:BSCA:1,2013-08-01T05:00:00Z,30.3288,-87.8293,0.0,5.6,216.0,99.0,'11111222,11111222,11144222' 
DISL,ioos:station:DISL:BSCA:1,2013-08-01T05:30:00Z,30.3288,-87.8293,0.0,5.5,221.0,99.0,'11111222,11111222,11144222' 
DISL,ioos:station:DISL:BSCA:1,2013-08-01T06:00:00Z,30.3288,-87.8293,0.0,5.2,223.0,99.0,'11111222,11111222,11144222' 
DISL,ioos:station:DISL:BSCA:1,2013-08-01T06:30:00Z,30.3288,-87.8293,0.0,5.7,219.0,99.0,'11111222,11111222,11144222' 
DISL,ioos:station:DISL:BSCA:1,2013-08-01T07:00:00Z,30.3288,-87.8293,0.0,5.6,229.0,99.0,'11111222,11111222,11144222' 
DISL,ioos:station:DISL:BSCA:1,2013-08-01T07:30:00Z,30.3288,-87.8293,0.0,6.2,242.0,99.0,'11111222,11111222,11144222' 
DISL,ioos:station:DISL:BSCA:1,2013-08-01T08:00:00Z,30.3288,-87.8293,0.0,6.1,231.0,99.0,'11111222,11111222,11144222' 
DISL,ioos:station:DISL:BSCA:1,2013-08-01T08:30:00Z,30.3288,-87.8293,0.0,5.4,233.0,99.0,'11111222,11111222,11144222' 
DISL,ioos:station:DISL:BSCA:1,2013-08-01T09:00:00Z,30.3288,-87.8293,0.0,6.0,244.0,99.0,'11111222,11111222,11144222' 
DISL,ioos:station:DISL:BSCA:1,2013-08-01T09:30:00Z,30.3288,-87.8293,0.0,5.6,245.0,99.0,'11111222,11111222,11144222' 
DISL,ioos:station:DISL:BSCA:1,2013-08-01T10:00:00Z,30.3288,-87.8293,0.0,5.4,250.0,99.0,'11111222,11111222,11144222' 
DISL,ioos:station:DISL:BSCA:1,2013-08-01T10:30:00Z,30.3288,-87.8293,0.0,6.7,257.0,99.0,'11111222,11111222,11144222' 
DISL,ioos:station:DISL:BSCA:1,2013-08-01T11:00:00Z,30.3288,-87.8293,0.0,6.7,286.0,99.0,'11111222,11111222,11144222' 
DISL,ioos:station:DISL:BSCA:1,2013-08-01T11:30:00Z,30.3288,-87.8293,0.0,5.6,290.0,99.0,'11111222,11111222,11144222' 
DISL,ioos:station:DISL:BSCA:1,2013-08-01T12:00:00Z,30.3288,-87.8293,0.0,5.7,300.0,99.0,'11111222,11111222,11144222' 
DISL,ioos:station:DISL:BSCA:1,2013-08-01T12:30:00Z,30.3288,-87.8293,0.0,6.1,304.0,99.0,'11111222,11111222,11144222' 
DISL,ioos:station:DISL:BSCA:1,2013-08-01T13:00:00Z,30.3288,-87.8293,0.0,7.3,299.0,99.0,'11111222,11111222,11144222' 
DISL,ioos:station:DISL:BSCA:1,2013-08-01T13:30:00Z,30.3288,-87.8293,0.0,7.6,298.0,99.0,'11111222,11111222,11144222' 
DISL,ioos:station:DISL:BSCA:1,2013-08-01T14:00:00Z,30.3288,-87.8293,0.0,6.7,282.0,99.0,'11111222,11111222,11144222' 
DISL,ioos:station:DISL:BSCA:1,2013-08-01T14:30:00Z,30.3288,-87.8293,0.0,5.9,272.0,99.0,'11111222,11111222,11144222' 
DISL,ioos:station:DISL:BSCA:1,2013-08-01T15:00:00Z,30.3288,-87.8293,0.0,5.0,11.0,99.0,'11111222,11111222,11144222' 
DISL,ioos:station:DISL:BSCA:1,2013-08-01T15:30:00Z,30.3288,-87.8293,0.0,5.4,56.0,99.0,'11111222,11111222,11144222' 
DISL,ioos:station:DISL:BSCA:1,2013-08-01T16:00:00Z,30.3288,-87.8293,0.0,5.6,161.0,99.0,'11111222,11111222,11144222' 
DISL,ioos:station:DISL:BSCA:1,2013-08-01T16:30:00Z,30.3288,-87.8293,0.0,4.0,182.0,99.0,'11111222,11111222,11144222' 
DISL,ioos:station:DISL:BSCA:1,2013-08-01T17:00:00Z,30.3288,-87.8293,0.0,2.8,169.0,99.0,'11111222,11111222,11144222' 
DISL,ioos:station:DISL:BSCA:1,2013-08-01T17:30:00Z,30.3288,-87.8293,0.0,3.9,214.0,99.0,'11111222,11111222,11144222' 
DISL,ioos:station:DISL:BSCA:1,2013-08-01T18:00:00Z,30.3288,-87.8293,0.0,4.7,216.0,99.0,'11111222,11111222,11144222' 
DISL,ioos:station:DISL:BSCA:1,2013-08-01T18:30:00Z,30.3288,-87.8293,0.0,4.2,194.0,99.0,'11111222,11111222,11144222' 
DISL,ioos:station:DISL:BSCA:1,2013-08-01T19:00:00Z,30.3288,-87.8293,0.0,4.5,193.0,99.0,'11111222,11111222,11144222' 
DISL,ioos:station:DISL:BSCA:1,2013-08-01T19:30:00Z,30.3288,-87.8293,0.0,5.5,172.0,99.0,'11111222,11111222,11144222' 
DISL,ioos:station:DISL:BSCA:1,2013-08-01T20:00:00Z,30.3288,-87.8293,0.0,6.0,161.0,99.0,'11111222,11111222,11144222' 
DISL,ioos:station:DISL:BSCA:1,2013-08-01T20:30:00Z,30.3288,-87.8293,0.0,9.5,152.0,99.0,'11111222,11111222,11144222' 
DISL,ioos:station:DISL:BSCA:1,2013-08-01T21:00:00Z,30.3288,-87.8293,0.0,8.6,284.0,99.0,'11111222,11111222,11144222' 
DISL,ioos:station:DISL:BSCA:1,2013-08-01T21:30:00Z,30.3288,-87.8293,0.0,2.5,246.0,99.0,'11111222,11111222,11144222' 
DISL,ioos:station:DISL:BSCA:1,2013-08-01T22:00:00Z,30.3288,-87.8293,0.0,0.4,87.0,99.0,'11111222,11111222,11144222' 
DISL,ioos:station:DISL:BSCA:1,2013-08-01T22:30:00Z,30.3288,-87.8293,0.0,3.7,340.0,99.0,'11111222,11111222,11144222' 
DISL,ioos:station:DISL:BSCA:1,2013-08-01T23:00:00Z,30.3288,-87.8293,0.0,1.8,39.0,99.0,'11111222,11111222,11144222' 
DISL,ioos:station:DISL:BSCA:1,2013-08-01T23:30:00Z,30.3288,-87.8293,0.0,1.8,256.0,99.0,'11111222,11111222,11144222' 
DISL,ioos:station:DISL:BSCA:1,2013-08-02T00:00:00Z,30.3288,-87.8293,0.0,3.3,264.0,99.0,'11111222,11111222,11144222' 
DISL,ioos:station:DISL:BSCA:1,2013-08-02T00:30:00Z,30.3288,-87.8293,0.0,1.9,284.0,99.0,'11111222,11111222,11144222' 
DISL,ioos:station:DISL:BSCA:1,2013-08-02T01:00:00Z,30.3288,-87.8293,0.0,4.3,39.0,99.0,'11111222,11111222,11144222' 
DISL,ioos:station:DISL:BSCA:1,2013-08-02T01:30:00Z,30.3288,-87.8293,0.0,2.1,51.0,99.0,'11111222,11111222,11144222' 
DISL,ioos:station:DISL:BSCA:1,2013-08-02T02:00:00Z,30.3288,-87.8293,0.0,2.4,79.0,99.0,'11111222,11111222,11144222' 
DISL,ioos:station:DISL:BSCA:1,2013-08-02T02:30:00Z,30.3288,-87.8293,0.0,3.2,95.0,99.0,'11111222,11111222,11144222' 
DISL,ioos:station:DISL:BSCA:1,2013-08-02T03:00:00Z,30.3288,-87.8293,0.0,2.8,103.0,99.0,'11111222,11111222,11144222' 
DISL,ioos:station:DISL:BSCA:1,2013-08-02T03:30:00Z,30.3288,-87.8293,0.0,1.3,75.0,99.0,'11111222,11111222,11144222' 
DISL,ioos:station:DISL:BSCA:1,2013-08-02T04:00:00Z,30.3288,-87.8293,0.0,0.7,78.0,99.0,'11111222,11111222,11144222' 
DISL,ioos:station:DISL:BSCA:1,2013-08-02T04:30:00Z,30.3288,-87.8293,0.0,2.9,52.0,99.0,'11111222,11111222,11144222' 
DISL,ioos:station:DISL:BSCA:1,2013-08-02T05:00:00Z,30.3288,-87.8293,0.0,2.3,65.0,99.0,'11111222,11111222,11144222' 
DISL,ioos:station:DISL:BSCA:1,2013-08-02T05:30:00Z,30.3288,-87.8293,0.0,2.3,44.0,99.0,'11111222,11111222,11144222' 
DISL,ioos:station:DISL:BSCA:1,2013-08-02T06:00:00Z,30.3288,-87.8293,0.0,1.3,33.0,99.0,'11111222,11111222,11144222' 
DISL,ioos:station:DISL:BSCA:1,2013-08-02T06:30:00Z,30.3288,-87.8293,0.0,1.8,41.0,99.0,'11111222,11111222,11144222' 
DISL,ioos:station:DISL:BSCA:1,2013-08-02T07:00:00Z,30.3288,-87.8293,0.0,0.9,45.0,99.0,'11111222,11111222,11144222' 
DISL,ioos:station:DISL:BSCA:1,2013-08-02T07:30:00Z,30.3288,-87.8293,0.0,1.1,27.0,99.0,'11111222,11111222,11144222' 
DISL,ioos:station:DISL:BSCA:1,2013-08-02T08:00:00Z,30.3288,-87.8293,0.0,1.8,110.0,99.0,'11111222,11111222,11144222' 
DISL,ioos:station:DISL:BSCA:1,2013-08-02T08:30:00Z,30.3288,-87.8293,0.0,1.6,23.0,99.0,'11111222,11111222,11144222' 
DISL,ioos:station:DISL:BSCA:1,2013-08-02T09:00:00Z,30.3288,-87.8293,0.0,2.5,19.0,99.0,'11111222,11111222,11144222' 
DISL,ioos:station:DISL:BSCA:1,2013-08-02T09:30:00Z,30.3288,-87.8293,0.0,2.9,30.0,99.0,'11111222,11111222,11144222' 
DISL,ioos:station:DISL:BSCA:1,2013-08-02T10:00:00Z,30.3288,-87.8293,0.0,3.4,38.0,99.0,'11111222,11111222,11144222' 
DISL,ioos:station:DISL:BSCA:1,2013-08-02T10:30:00Z,30.3288,-87.8293,0.0,2.5,28.0,99.0,'11111222,11111222,11144222' 
DISL,ioos:station:DISL:BSCA:1,2013-08-02T11:00:00Z,30.3288,-87.8293,0.0,3.4,22.0,99.0,'11111222,11111222,11144222' 
DISL,ioos:station:DISL:BSCA:1,2013-08-02T11:30:00Z,30.3288,-87.8293,0.0,3.1,20.0,99.0,'11111222,11111222,11144222' 
DISL,ioos:station:DISL:BSCA:1,2013-08-02T12:00:00Z,30.3288,-87.8293,0.0,4.1,21.0,99.0,'11111222,11111222,11144222' 
DISL,ioos:station:DISL:BSCA:1,2013-08-02T12:30:00Z,30.3288,-87.8293,0.0,3.7,36.0,99.0,'11111222,11111222,11144222' 
DISL,ioos:station:DISL:BSCA:1,2013-08-02T13:00:00Z,30.3288,-87.8293,0.0,3.3,48.0,99.0,'11111222,11111222,11144222' 
DISL,ioos:station:DISL:BSCA:1,2013-08-02T13:30:00Z,30.3288,-87.8293,0.0,2.3,33.0,99.0,'11111222,11111222,11144222' 
DISL,ioos:station:DISL:BSCA:1,2013-08-02T14:00:00Z,30.3288,-87.8293,0.0,3.6,39.0,99.0,'11111222,11111222,11144222' 
DISL,ioos:station:DISL:BSCA:1,2013-08-02T14:30:00Z,30.3288,-87.8293,0.0,1.3,67.0,99.0,'11111222,11111222,11144222' 
DISL,ioos:station:DISL:BSCA:1,2013-08-02T15:00:00Z,30.3288,-87.8293,0.0,1.3,56.0,99.0,'11111222,11111222,11144222' 
DISL,ioos:station:DISL:BSCA:1,2013-08-02T15:30:00Z,30.3288,-87.8293,0.0,0.4,206.0,99.0,'11111222,11111222,11144222' 
DISL,ioos:station:DISL:BSCA:1,2013-08-02T16:00:00Z,30.3288,-87.8293,0.0,1.6,285.0,99.0,'11111222,11111222,11144222' 
DISL,ioos:station:DISL:BSCA:1,2013-08-02T16:30:00Z,30.3288,-87.8293,0.0,1.4,259.0,99.0,'11111222,11111222,11144222' 
DISL,ioos:station:DISL:BSCA:1,2013-08-02T17:00:00Z,30.3288,-87.8293,0.0,2.7,228.0,99.0,'11111222,11111222,11144222' 
DISL,ioos:station:DISL:BSCA:1,2013-08-02T17:30:00Z,30.3288,-87.8293,0.0,3.0,182.0,99.0,'11111222,11111222,11144222' 
DISL,ioos:station:DISL:BSCA:1,2013-08-02T18:00:00Z,30.3288,-87.8293,0.0,2.9,168.0,99.0,'11111222,11111222,11144222' 
DISL,ioos:station:DISL:BSCA:1,2013-08-02T18:30:00Z,30.3288,-87.8293,0.0,2.9,149.0,99.0,'11111222,11111222,11144222' 
DISL,ioos:station:DISL:BSCA:1,2013-08-02T19:00:00Z,30.3288,-87.8293,0.0,3.4,167.0,99.0,'11111222,11111222,11144222' 
DISL,ioos:station:DISL:BSCA:1,2013-08-02T19:30:00Z,30.3288,-87.8293,0.0,4.1,175.0,99.0,'11111222,11111222,11144222' 
DISL,ioos:station:DISL:BSCA:1,2013-08-02T20:00:00Z,30.3288,-87.8293,0.0,3.5,185.0,99.0,'11111222,11111222,11144222' 
DISL,ioos:station:DISL:BSCA:1,2013-08-02T20:30:00Z,30.3288,-87.8293,0.0,3.1,201.0,99.0,'11111222,11111222,11144222' 
DISL,ioos:station:DISL:BSCA:1,2013-08-02T21:00:00Z,30.3288,-87.8293,0.0,3.0,206.0,99.0,'11111222,11111222,11144222' 
DISL,ioos:station:DISL:BSCA:1,2013-08-02T21:30:00Z,30.3288,-87.8293,0.0,3.0,206.0,99.0,'11111222,11111222,11144222' 
DISL,ioos:station:DISL:BSCA:1,2013-08-02T22:00:00Z,30.3288,-87.8293,0.0,2.9,206.0,99.0,'11111222,11111222,11144222' 
DISL,ioos:station:DISL:BSCA:1,2013-08-02T22:30:00Z,30.3288,-87.8293,0.0,3.2,199.0,99.0,'11111222,11111222,11144222' 
DISL,ioos:station:DISL:BSCA:1,2013-08-02T23:00:00Z,30.3288,-87.8293,0.0,3.3,198.0,99.0,'11111222,11111222,11144222' 
DISL,ioos:station:DISL:BSCA:1,2013-08-02T23:30:00Z,30.3288,-87.8293,0.0,3.5,189.0,99.0,'11111222,11111222,11144222' 
DISL,ioos:station:DISL:BSCA:1,2013-08-03T00:00:00Z,30.3288,-87.8293,0.0,4.0,184.0,99.0,'11111222,11111222,11144222' 
DISL,ioos:station:DISL:BSCA:1,2013-08-03T00:30:00Z,30.3288,-87.8293,0.0,2.6,212.0,99.0,'11111222,11111222,11144222' 
DISL,ioos:station:DISL:BSCA:1,2013-08-03T01:00:00Z,30.3288,-87.8293,0.0,3.2,217.0,99.0,'11111222,11111222,11144222' 
DISL,ioos:station:DISL:BSCA:1,2013-08-03T01:30:00Z,30.3288,-87.8293,0.0,3.3,218.0,99.0,'11111222,11111222,11144222' 
DISL,ioos:station:DISL:BSCA:1,2013-08-03T02:00:00Z,30.3288,-87.8293,0.0,2.6,220.0,99.0,'11111222,11111222,11144222' 
DISL,ioos:station:DISL:BSCA:1,2013-08-03T02:30:00Z,30.3288,-87.8293,0.0,2.5,227.0,99.0,'11111222,11111222,11144222' 
DISL,ioos:station:DISL:BSCA:1,2013-08-03T03:00:00Z,30.3288,-87.8293,0.0,2.3,222.0,99.0,'11111222,11111222,11144222' 
DISL,ioos:station:DISL:BSCA:1,2013-08-03T03:30:00Z,30.3288,-87.8293,0.0,2.2,221.0,99.0,'11111222,11111222,11144222' 
DISL,ioos:station:DISL:BSCA:1,2013-08-03T04:00:00Z,30.3288,-87.8293,0.0,3.0,196.0,99.0,'11111222,11111222,11144222' 
DISL,ioos:station:DISL:BSCA:1,2013-08-03T04:30:00Z,30.3288,-87.8293,0.0,3.1,198.0,99.0,'11111222,11111222,11144222' 
DISL,ioos:station:DISL:BSCA:1,2013-08-03T05:00:00Z,30.3288,-87.8293,0.0,3.7,189.0,99.0,'11111222,11111222,11144222' 
DISL,ioos:station:DISL:BSCA:1,2013-08-03T05:30:00Z,30.3288,-87.8293,0.0,3.4,200.0,99.0,'11111222,11111222,11144222' 
DISL,ioos:station:DISL:BSCA:1,2013-08-03T06:00:00Z,30.3288,-87.8293,0.0,4.2,199.0,99.0,'11111222,11111222,11144222' 
DISL,ioos:station:DISL:BSCA:1,2013-08-03T06:30:00Z,30.3288,-87.8293,0.0,4.4,204.0,99.0,'11111222,11111222,11144222' 
DISL,ioos:station:DISL:BSCA:1,2013-08-03T07:00:00Z,30.3288,-87.8293,0.0,3.9,213.0,99.0,'11111222,11111222,11144222' 
DISL,ioos:station:DISL:BSCA:1,2013-08-03T07:30:00Z,30.3288,-87.8293,0.0,3.7,214.0,99.0,'11111222,11111222,11144222' 
DISL,ioos:station:DISL:BSCA:1,2013-08-03T08:00:00Z,30.3288,-87.8293,0.0,3.8,216.0,99.0,'11111222,11111222,11144222' 
DISL,ioos:station:DISL:BSCA:1,2013-08-03T08:30:00Z,30.3288,-87.8293,0.0,4.5,220.0,99.0,'11111222,11111222,11144222' 
DISL,ioos:station:DISL:BSCA:1,2013-08-03T09:00:00Z,30.3288,-87.8293,0.0,3.8,228.0,99.0,'11111222,11111222,11144222' 
DISL,ioos:station:DISL:BSCA:1,2013-08-03T09:30:00Z,30.3288,-87.8293,0.0,3.6,233.0,99.0,'11111222,11111222,11144222' 
DISL,ioos:station:DISL:BSCA:1,2013-08-03T10:00:00Z,30.3288,-87.8293,0.0,3.4,236.0,99.0,'11111222,11111222,11144222' 
DISL,ioos:station:DISL:BSCA:1,2013-08-03T10:30:00Z,30.3288,-87.8293,0.0,3.4,228.0,99.0,'11111222,11111222,11144222' 
DISL,ioos:station:DISL:BSCA:1,2013-08-03T11:00:00Z,30.3288,-87.8293,0.0,3.2,241.0,99.0,'11111222,11111222,11144222' 
DISL,ioos:station:DISL:BSCA:1,2013-08-03T11:30:00Z,30.3288,-87.8293,0.0,3.2,249.0,99.0,'11111222,11111222,11144222' 
DISL,ioos:station:DISL:BSCA:1,2013-08-03T12:00:00Z,30.3288,-87.8293,0.0,3.5,273.0,99.0,'11111222,11111222,11144222' 
DISL,ioos:station:DISL:BSCA:1,2013-08-03T12:30:00Z,30.3288,-87.8293,0.0,3.1,355.0,99.0,'11111222,11111222,11144222' 
DISL,ioos:station:DISL:BSCA:1,2013-08-03T13:00:00Z,30.3288,-87.8293,0.0,3.2,349.0,99.0,'11111222,11111222,11144222' 
DISL,ioos:station:DISL:BSCA:1,2013-08-03T13:30:00Z,30.3288,-87.8293,0.0,2.5,348.0,99.0,'11111222,11111222,11144222' 
DISL,ioos:station:DISL:BSCA:1,2013-08-03T14:00:00Z,30.3288,-87.8293,0.0,2.4,347.0,99.0,'11111222,11111222,11144222' 
DISL,ioos:station:DISL:BSCA:1,2013-08-03T14:30:00Z,30.3288,-87.8293,0.0,1.6,331.0,99.0,'11111222,11111222,11144222' 
DISL,ioos:station:DISL:BSCA:1,2013-08-03T15:00:00Z,30.3288,-87.8293,0.0,3.2,314.0,99.0,'11111222,11111222,11144222' 
DISL,ioos:station:DISL:BSCA:1,2013-08-03T15:30:00Z,30.3288,-87.8293,0.0,1.8,310.0,99.0,'11111222,11111222,11144222' 
DISL,ioos:station:DISL:BSCA:1,2013-08-03T16:00:00Z,30.3288,-87.8293,0.0,2.5,301.0,99.0,'11111222,11111222,11144222' 
DISL,ioos:station:DISL:BSCA:1,2013-08-03T16:30:00Z,30.3288,-87.8293,0.0,2.4,299.0,99.0,'11111222,11111222,11144222' 
DISL,ioos:station:DISL:BSCA:1,2013-08-03T17:00:00Z,30.3288,-87.8293,0.0,2.7,269.0,99.0,'11111222,11111222,11144222' 
DISL,ioos:station:DISL:BSCA:1,2013-08-03T17:30:00Z,30.3288,-87.8293,0.0,2.3,253.0,99.0,'11111222,11111222,11144222' 
DISL,ioos:station:DISL:BSCA:1,2013-08-03T18:00:00Z,30.3288,-87.8293,0.0,3.0,252.0,99.0,'11111222,11111222,11144222' 
DISL,ioos:station:DISL:BSCA:1,2013-08-03T18:30:00Z,30.3288,-87.8293,0.0,2.7,234.0,99.0,'11111222,11111222,11144222' 
DISL,ioos:station:DISL:BSCA:1,2013-08-03T19:00:00Z,30.3288,-87.8293,0.0,3.5,225.0,99.0,'11111222,11111222,11144222' 
DISL,ioos:station:DISL:BSCA:1,2013-08-03T19:30:00Z,30.3288,-87.8293,0.0,3.6,228.0,99.0,'11111222,11111222,11144222' 
DISL,ioos:station:DISL:BSCA:1,2013-08-03T20:00:00Z,30.3288,-87.8293,0.0,4.5,215.0,99.0,'11111222,11111222,11144222' 
DISL,ioos:station:DISL:BSCA:1,2013-08-03T20:30:00Z,30.3288,-87.8293,0.0,3.6,216.0,99.0,'11111222,11111222,11144222' 
DISL,ioos:station:DISL:BSCA:1,2013-08-03T21:00:00Z,30.3288,-87.8293,0.0,3.6,218.0,99.0,'11111222,11111222,11144222' 
DISL,ioos:station:DISL:BSCA:1,2013-08-03T21:30:00Z,30.3288,-87.8293,0.0,4.9,209.0,99.0,'11111222,11111222,11144222' 
DISL,ioos:station:DISL:BSCA:1,2013-08-03T22:00:00Z,30.3288,-87.8293,0.0,5.6,215.0,99.0,'11111222,11111222,11144222' 
DISL,ioos:station:DISL:BSCA:1,2013-08-03T22:30:00Z,30.3288,-87.8293,0.0,5.7,205.0,99.0,'11111222,11111222,11144222' 
DISL,ioos:station:DISL:BSCA:1,2013-08-03T23:00:00Z,30.3288,-87.8293,0.0,5.5,220.0,99.0,'11111222,11111222,11144222' 
DISL,ioos:station:DISL:BSCA:1,2013-08-03T23:30:00Z,30.3288,-87.8293,0.0,5.2,227.0,99.0,'11111222,11111222,11144222' 
DISL,ioos:station:DISL:BSCA:1,2013-08-04T00:00:00Z,30.3288,-87.8293,0.0,4.8,233.0,99.0,'11111222,11111222,11144222' 
DISL,ioos:station:DISL:BSCA:1,2013-08-04T00:30:00Z,30.3288,-87.8293,0.0,5.0,229.0,99.0,'11111222,11111222,11144222' 
DISL,ioos:station:DISL:BSCA:1,2013-08-04T01:00:00Z,30.3288,-87.8293,0.0,4.5,216.0,99.0,'11111222,11111222,11144222' 
DISL,ioos:station:DISL:BSCA:1,2013-08-04T01:30:00Z,30.3288,-87.8293,0.0,5.4,220.0,99.0,'11111222,11111222,11144222' 
DISL,ioos:station:DISL:BSCA:1,2013-08-04T02:00:00Z,30.3288,-87.8293,0.0,5.5,221.0,99.0,'11111222,11111222,11144222' 
DISL,ioos:station:DISL:BSCA:1,2013-08-04T02:30:00Z,30.3288,-87.8293,0.0,5.0,225.0,99.0,'11111222,11111222,11144222' 
DISL,ioos:station:DISL:BSCA:1,2013-08-04T03:00:00Z,30.3288,-87.8293,0.0,4.0,223.0,99.0,'11111222,11111222,11144222' 
DISL,ioos:station:DISL:BSCA:1,2013-08-04T03:30:00Z,30.3288,-87.8293,0.0,3.9,215.0,99.0,'11111222,11111222,11144222' 
DISL,ioos:station:DISL:BSCA:1,2013-08-04T04:00:00Z,30.3288,-87.8293,0.0,3.9,220.0,99.0,'11111222,11111222,11144222' 
DISL,ioos:station:DISL:BSCA:1,2013-08-04T04:30:00Z,30.3288,-87.8293,0.0,4.5,222.0,99.0,'11111222,11111222,11144222' 
DISL,ioos:station:DISL:BSCA:1,2013-08-04T05:00:00Z,30.3288,-87.8293,0.0,4.6,224.0,99.0,'11111222,11111222,11144222' 
DISL,ioos:station:DISL:BSCA:1,2013-08-04T05:30:00Z,30.3288,-87.8293,0.0,4.4,230.0,99.0,'11111222,11111222,11144222' 
DISL,ioos:station:DISL:BSCA:1,2013-08-04T06:00:00Z,30.3288,-87.8293,0.0,4.3,219.0,99.0,'11111222,11111222,11144222' 
DISL,ioos:station:DISL:BSCA:1,2013-08-04T06:30:00Z,30.3288,-87.8293,0.0,4.7,226.0,99.0,'11111222,11111222,11144222' 
DISL,ioos:station:DISL:BSCA:1,2013-08-04T07:00:00Z,30.3288,-87.8293,0.0,4.9,235.0,99.0,'11111222,11111222,11144222' 
DISL,ioos:station:DISL:BSCA:1,2013-08-04T07:30:00Z,30.3288,-87.8293,0.0,5.2,245.0,99.0,'11111222,11111222,11144222' 
DISL,ioos:station:DISL:BSCA:1,2013-08-04T08:00:00Z,30.3288,-87.8293,0.0,4.5,255.0,99.0,'11111222,11111222,11144222' 
DISL,ioos:station:DISL:BSCA:1,2013-08-04T08:30:00Z,30.3288,-87.8293,0.0,4.5,253.0,99.0,'11111222,11111222,11144222' 
DISL,ioos:station:DISL:BSCA:1,2013-08-04T09:00:00Z,30.3288,-87.8293,0.0,4.4,271.0,99.0,'11111222,11111222,11144222' 
DISL,ioos:station:DISL:BSCA:1,2013-08-04T09:30:00Z,30.3288,-87.8293,0.0,4.6,290.0,99.0,'11111222,11111222,11144222' 
DISL,ioos:station:DISL:BSCA:1,2013-08-04T10:00:00Z,30.3288,-87.8293,0.0,3.3,342.0,99.0,'11111222,11111222,11144222' 
DISL,ioos:station:DISL:BSCA:1,2013-08-04T10:30:00Z,30.3288,-87.8293,0.0,3.8,333.0,99.0,'11111222,11111222,11144222' 
DISL,ioos:station:DISL:BSCA:1,2013-08-04T11:00:00Z,30.3288,-87.8293,0.0,5.6,317.0,99.0,'11111222,11111222,11144222' 
DISL,ioos:station:DISL:BSCA:1,2013-08-04T11:30:00Z,30.3288,-87.8293,0.0,4.9,312.0,99.0,'11111222,11111222,11144222' 
DISL,ioos:station:DISL:BSCA:1,2013-08-04T12:00:00Z,30.3288,-87.8293,0.0,4.9,317.0,99.0,'11111222,11111222,11144222' 
DISL,ioos:station:DISL:BSCA:1,2013-08-04T12:30:00Z,30.3288,-87.8293,0.0,5.5,321.0,99.0,'11111222,11111222,11144222' 
DISL,ioos:station:DISL:BSCA:1,2013-08-04T13:00:00Z,30.3288,-87.8293,0.0,4.8,323.0,99.0,'11111222,11111222,11144222' 
DISL,ioos:station:DISL:BSCA:1,2013-08-04T13:30:00Z,30.3288,-87.8293,0.0,4.7,320.0,99.0,'11111222,11111222,11144222' 
DISL,ioos:station:DISL:BSCA:1,2013-08-04T14:00:00Z,30.3288,-87.8293,0.0,4.3,313.0,99.0,'11111222,11111222,11144222' 
DISL,ioos:station:DISL:BSCA:1,2013-08-04T14:30:00Z,30.3288,-87.8293,0.0,4.8,306.0,99.0,'11111222,11111222,11144222' 
DISL,ioos:station:DISL:BSCA:1,2013-08-04T15:00:00Z,30.3288,-87.8293,0.0,4.5,303.0,99.0,'11111222,11111222,11144222' 
DISL,ioos:station:DISL:BSCA:1,2013-08-04T15:30:00Z,30.3288,-87.8293,0.0,4.4,298.0,99.0,'11111222,11111222,11144222' 
DISL,ioos:station:DISL:BSCA:1,2013-08-04T16:00:00Z,30.3288,-87.8293,0.0,4.5,291.0,99.0,'11111222,11111222,11144222' 
DISL,ioos:station:DISL:BSCA:1,2013-08-04T16:30:00Z,30.3288,-87.8293,0.0,4.1,294.0,99.0,'11111222,11111222,11144222' 
DISL,ioos:station:DISL:BSCA:1,2013-08-04T17:00:00Z,30.3288,-87.8293,0.0,3.4,279.0,99.0,'11111222,11111222,11144222' 
DISL,ioos:station:DISL:BSCA:1,2013-08-04T17:30:00Z,30.3288,-87.8293,0.0,3.4,278.0,99.0,'11111222,11111222,11144222' 
DISL,ioos:station:DISL:BSCA:1,2013-08-04T18:00:00Z,30.3288,-87.8293,0.0,3.5,273.0,99.0,'11111222,11111222,11144222' 
DISL,ioos:station:DISL:BSCA:1,2013-08-04T18:30:00Z,30.3288,-87.8293,0.0,3.9,266.0,99.0,'11111222,11111222,11144222' 
DISL,ioos:station:DISL:BSCA:1,2013-08-04T19:00:00Z,30.3288,-87.8293,0.0,3.4,269.0,99.0,'11111222,11111222,11144222' 
DISL,ioos:station:DISL:BSCA:1,2013-08-04T19:30:00Z,30.3288,-87.8293,0.0,3.0,261.0,99.0,'11111222,11111222,11144222' 
DISL,ioos:station:DISL:BSCA:1,2013-08-04T20:00:00Z,30.3288,-87.8293,0.0,4.6,246.0,99.0,'11111222,11111222,11144222' 
DISL,ioos:station:DISL:BSCA:1,2013-08-04T20:30:00Z,30.3288,-87.8293,0.0,4.4,236.0,99.0,'11111222,11111222,11144222' 
DISL,ioos:station:DISL:BSCA:1,2013-08-04T21:00:00Z,30.3288,-87.8293,0.0,5.0,242.0,99.0,'11111222,11111222,11144222' 
DISL,ioos:station:DISL:BSCA:1,2013-08-04T21:30:00Z,30.3288,-87.8293,0.0,5.5,243.0,99.0,'11111222,11111222,11144222' 
DISL,ioos:station:DISL:BSCA:1,2013-08-04T22:00:00Z,30.3288,-87.8293,0.0,5.8,237.0,99.0,'11111222,11111222,11144222' 
DISL,ioos:station:DISL:BSCA:1,2013-08-04T22:30:00Z,30.3288,-87.8293,0.0,6.4,239.0,99.0,'11111222,11111222,11144222' 
DISL,ioos:station:DISL:BSCA:1,2013-08-04T23:00:00Z,30.3288,-87.8293,0.0,6.3,241.0,99.0,'11111222,11111222,11144222' 
DISL,ioos:station:DISL:BSCA:1,2013-08-04T23:30:00Z,30.3288,-87.8293,0.0,5.9,228.0,99.0,'11111222,11111222,11144222' 
DISL,ioos:station:DISL:BSCA:1,2013-08-05T00:00:00Z,30.3288,-87.8293,0.0,11.1,358.0,99.0,'11111222,11111222,11144222' 
DISL,ioos:station:DISL:BSCA:1,2013-08-05T00:30:00Z,30.3288,-87.8293,0.0,4.1,175.0,99.0,'11111222,11111222,11144222' 
DISL,ioos:station:DISL:BSCA:1,2013-08-05T01:00:00Z,30.3288,-87.8293,0.0,3.4,211.0,99.0,'11111222,11111222,11144222' 
DISL,ioos:station:DISL:BSCA:1,2013-08-05T01:30:00Z,30.3288,-87.8293,0.0,3.5,236.0,99.0,'11111222,11111222,11144222' 
DISL,ioos:station:DISL:BSCA:1,2013-08-05T02:00:00Z,30.3288,-87.8293,0.0,2.4,276.0,99.0,'11111222,11111222,11144222' 
DISL,ioos:station:DISL:BSCA:1,2013-08-05T02:30:00Z,30.3288,-87.8293,0.0,1.4,339.0,99.0,'11111222,11111222,11144222' 
DISL,ioos:station:DISL:BSCA:1,2013-08-05T03:00:00Z,30.3288,-87.8293,0.0,1.0,331.0,99.0,'11111222,11111222,11144222' 
DISL,ioos:station:DISL:BSCA:1,2013-08-05T03:30:00Z,30.3288,-87.8293,0.0,1.0,334.0,99.0,'11111222,11111222,11144222' 
DISL,ioos:station:DISL:BSCA:1,2013-08-05T04:00:00Z,30.3288,-87.8293,0.0,1.1,322.0,99.0,'11111222,11111222,11144222' 
DISL,ioos:station:DISL:BSCA:1,2013-08-05T04:30:00Z,30.3288,-87.8293,0.0,2.3,20.0,99.0,'11111222,11111222,11144222' 
DISL,ioos:station:DISL:BSCA:1,2013-08-05T05:00:00Z,30.3288,-87.8293,0.0,1.5,348.0,99.0,'11111222,11111222,11144222' 
DISL,ioos:station:DISL:BSCA:1,2013-08-05T05:30:00Z,30.3288,-87.8293,0.0,2.4,30.0,99.0,'11111222,11111222,11144222' 